Wind_Speed
27 28 28 28 28 28 29 29 29 30 30 31 32 33 33 34 34 35 35 35 36 36 37 37 38 39 39 40 40 41 42 43 44 45 45 46 46 46 47 47 47 48 48
28 28 28 28 28 29 29 30 30 31 32 33 33 34 35 35 36 36 36 37 37 37 37 38 39 39 40 41 41 42 43 43 44 45 46 46 47 48 48 48 48 49 49
29 29 29 29 29 30 30 31 32 32 33 34 35 35 36 36 37 37 37 37 38 38 38 39 39 40 41 42 42 43 44 44 45 45 46 46 47 48 48 49 49 50 50
29 29 30 30 31 31 31 32 33 34 34 35 36 36 37 37 37 38 38 38 39 39 40 40 41 41 42 43 44 44 45 45 46 47 47 48 48 49 49 50 50 51 51
31 31 31 31 32 32 33 34 34 35 36 37 37 38 38 38 39 39 40 40 41 41 42 42 43 43 44 44 45 46 46 47 47 48 48 49 50 50 51 51 52 52 53
31 31 32 32 33 34 35 35 36 37 37 38 38 39 39 40 41 41 42 42 43 43 44 44 45 46 46 47 47 47 48 49 49 50 51 51 52 52 53 53 53 54 54
32 33 33 34 35 35 36 37 38 38 38 39 40 40 41 41 42 43 43 44 45 45 46 47 47 48 49 49 50 50 51 51 52 53 53 54 54 55 55 56 56 56 56
34 34 35 36 37 37 38 39 39 40 40 41 41 41 41 41 43 44 45 46 47 48 48 49 50 51 51 52 52 53 54 54 55 55 56 56 57 57 58 58 58 59 59
35 36 37 37 38 39 40 40 41 42 42 43 43 43 43 42 42 43 45 47 48 50 51 51 52 53 54 54 55 55 56 57 57 58 58 59 60 60 61 61 62 62 62
36 37 38 39 40 40 41 42 43 43 44 44 44 45 45 45 45 44 44 47 48 50 51 53 54 55 56 56 57 58 58 59 60 61 61 62 63 63 64 64 65 65 65
37 38 39 40 41 42 43 43 44 44 45 46 46 47 47 48 48 48 47 48 49 50 51 53 54 55 57 57 58 59 60 61 62 63 63 64 65 66 67 67 67 68 68
38 39 40 42 43 43 44 45 45 46 47 47 48 48 49 49 50 51 51 50 50 50 51 53 54 56 57 58 59 60 61 62 64 65 66 66 67 68 68 69 69 70 70
39 40 42 43 44 45 45 46 47 48 48 49 49 50 51 51 52 53 53 53 52 52 53 54 55 57 58 59 60 61 62 63 64 66 67 68 68 69 69 69 70 70 71
40 42 43 44 45 46 46 47 48 49 50 50 51 51 52 53 53 54 55 55 55 55 56 56 57 58 60 61 62 63 64 65 66 67 68 69 69 70 71 72 72 73 74
42 43 44 45 46 47 48 48 49 50 51 52 52 53 53 54 54 55 56 57 58 58 57 58 60 61 62 63 64 65 66 67 68 69 70 71 72 73 74 75 75 76 76
43 44 45 46 47 48 48 49 51 52 52 52 53 53 54 55 56 57 58 59 60 61 61 61 63 65 66 67 68 69 70 72 73 74 75 76 76 77 77 77 77 77 77
44 45 46 47 47 48 50 51 52 52 53 53 54 54 55 56 57 58 59 60 62 64 64 64 66 68 70 71 73 74 76 77 77 78 79 79 80 80 80 79 79 78 78
44 45 46 47 48 50 51 52 53 53 53 54 54 55 56 57 58 60 62 63 65 66 67 67 68 71 73 76 77 78 79 79 80 80 81 82 82 82 81 80 79 78 78
45 46 47 48 50 51 52 53 53 53 54 54 55 56 58 59 61 63 65 66 67 68 70 72 72 75 77 78 79 80 80 80 81 81 82 81 80 79 77 76 75 74 74
46 47 48 50 51 52 53 53 53 54 55 56 57 59 61 62 64 66 67 68 70 72 74 75 76 77 78 79 81 80 80 80 79 79 77 75 73 71 69 68 66 65 63
47 48 49 51 52 52 53 54 54 55 56 58 59 62 63 65 66 68 70 71 73 75 76 77 78 79 79 80 79 78 77 75 73 72 69 65 63 61 59 57 55 53 51
48 49 50 51 52 53 54 55 56 57 59 60 62 64 66 67 68 70 72 74 76 77 79 80 80 80 79 77 75 73 72 69 65 61 59 55 53 51 49 46 44 43 41
49 50 51 52 52 54 55 56 58 60 62 64 65 67 68 70 72 73 74 75 77 78 80 81 80 78 75 72 70 68 65 62 57 53 50 46 44 42 41 39 37 36 35
50 50 51 52 53 55 57 59 61 63 65 66 68 69 71 72 74 76 76 77 78 78 79 78 76 73 69 67 65 63 59 54 49 45 43 39 37 36 35 34 33 31 30
49 51 52 53 55 57 59 62 64 66 67 68 69 71 73 74 76 77 78 79 78 76 75 73 70 68 65 62 60 56 51 46 41 37 36 34 32 31 30 30 29 28 27
50 51 53 55 57 60 62 64 66 68 69 70 71 73 74 76 77 78 79 78 76 73 71 68 66 63 60 56 53 49 45 40 35 32 31 30 29 27 25 26 26 24 24
Wind_Direction
284 285 287 288 289 290 290 291 291 292 291 291 290 290 289 288 287 286 285 284 283 282 280 280 279 278 277 277 275 274 273 272 271 270 269 269 268 267 266 265 264 263 263
284 285 287 288 289 289 290 291 291 291 291 291 291 290 290 289 288 287 286 285 284 282 282 281 280 279 278 277 276 275 275 274 273 272 271 270 269 268 267 266 265 264 263
284 286 287 289 289 290 290 291 292 292 292 292 292 291 291 290 290 289 288 286 285 284 282 282 281 280 279 278 277 277 275 274 274 273 272 271 270 269 268 267 266 265 264
285 286 287 288 290 290 291 292 293 293 294 294 294 293 293 292 291 290 289 288 287 286 285 284 283 282 281 279 278 277 276 275 274 273 272 272 271 270 269 268 267 266 264
285 286 287 289 290 291 292 293 294 294 295 295 294 294 293 293 292 291 290 289 288 287 287 286 285 284 282 281 280 278 277 276 275 274 273 272 271 270 269 268 267 266 265
284 286 288 289 291 292 293 294 294 295 295 295 294 294 294 293 292 291 291 290 289 288 287 287 286 284 283 282 281 280 279 277 276 275 274 273 272 271 270 269 268 267 266
285 287 288 290 291 292 293 294 295 295 295 295 294 294 293 293 292 291 291 290 290 289 288 288 286 285 284 283 282 281 280 279 278 276 275 274 273 272 271 270 269 268 267
285 287 288 290 291 293 294 295 295 296 295 295 294 293 292 292 292 292 292 291 291 290 290 289 288 287 285 284 283 282 281 280 279 278 277 275 274 273 272 271 269 268 267
286 288 289 291 292 293 294 295 296 296 296 296 295 294 292 291 290 291 291 291 291 291 290 289 289 288 287 286 285 284 283 282 281 280 278 277 276 274 273 272 271 270 268
287 289 290 291 293 294 295 296 296 296 296 296 295 295 294 293 291 290 289 290 290 289 289 289 288 288 287 286 285 284 284 283 282 281 280 279 278 276 275 274 272 271 269
288 289 291 293 294 295 296 296 296 296 296 296 295 295 295 294 294 293 291 290 290 289 289 288 288 288 287 287 286 285 284 283 282 282 281 280 278 277 276 274 273 272 270
288 290 292 294 295 296 296 296 296 296 296 296 296 295 295 295 294 294 293 292 291 291 290 290 289 288 288 287 286 285 284 284 283 282 282 281 279 278 277 275 273 272 271
289 291 293 294 295 296 296 296 297 297 297 297 297 296 296 296 295 295 294 293 293 292 291 291 290 289 289 288 287 286 285 285 284 283 283 282 280 279 277 276 275 273 272
291 292 294 295 296 296 296 297 297 298 298 298 297 297 297 297 297 296 296 295 294 294 293 293 292 291 291 290 289 288 287 286 285 284 283 282 280 279 278 277 276 274 273
291 293 294 295 296 296 297 298 298 299 299 298 298 298 298 298 298 297 297 297 296 295 294 294 294 293 292 292 291 290 289 288 287 285 284 282 281 280 279 278 277 275 274
291 293 294 295 296 297 297 298 299 299 299 299 299 299 299 299 298 298 298 298 297 297 297 296 295 295 294 293 292 291 290 289 288 287 286 284 283 281 280 278 277 275 273
292 293 294 296 297 298 298 299 299 300 300 300 300 300 300 300 300 300 299 299 299 299 298 298 297 296 296 295 294 294 293 291 290 289 288 286 285 284 282 280 278 276 274
293 294 296 296 297 298 299 299 300 300 300 300 301 301 301 301 301 301 300 300 300 299 299 299 298 297 297 296 295 295 294 293 292 291 290 289 287 285 283 281 279 277 275
293 295 296 296 297 298 299 300 301 301 301 301 302 302 302 302 302 302 301 301 300 300 300 299 299 298 298 297 296 295 295 294 293 292 291 290 288 286 284 282 279 277 275
294 295 296 297 298 299 300 301 301 302 302 302 302 303 303 303 303 302 302 301 301 301 301 300 300 300 299 298 297 296 295 295 294 293 291 290 288 286 284 282 280 278 275
295 296 297 298 299 300 301 301 302 302 302 303 303 303 303 303 304 303 302 302 302 302 301 301 301 301 300 299 298 297 296 296 295 294 292 290 288 286 284 282 280 277 274
296 297 298 299 300 301 301 302 302 302 303 303 303 303 304 304 303 303 303 303 303 303 302 302 302 302 301 300 299 299 298 298 296 294 291 289 287 285 284 281 279 275 272
296 297 298 299 300 301 302 302 303 303 303 304 304 304 304 304 304 303 304 304 303 304 303 303 303 303 302 301 301 300 300 299 297 293 290 289 286 284 282 280 278 275 271
297 298 299 300 301 301 302 302 303 303 304 304 305 305 305 305 305 304 304 304 304 304 303 303 304 304 303 302 302 301 300 298 295 292 290 288 285 283 281 279 277 274 271
297 298 299 300 301 302 302 303 303 304 305 305 305 306 306 305 305 304 305 305 305 304 303 303 304 303 302 302 302 301 299 297 294 291 289 288 285 283 279 277 275 274 271
298 299 300 301 302 302 303 304 304 305 305 306 306 306 306 306 306 306 305 305 305 305 304 304 303 302 301 301 300 299 298 295 292 290 288 288 286 281 278 278 276 273 271
Height
5829 5828 5826 5824 5822 5819 5817 5815 5813 5810 5808 5806 5803 5801 5798 5796 5794 5792 5790 5788 5786 5784 5782 5781 5779 5777 5776 5774 5773 5772 5771 5770 5769 5768 5768 5767 5767 5767 5767 5767 5767 5768 5768
5823 5822 5820 5818 5815 5813 5811 5809 5806 5804 5801 5799 5796 5793 5791 5788 5786 5784 5782 5780 5778 5776 5774 5772 5770 5768 5767 5765 5764 5762 5761 5760 5759 5758 5757 5757 5757 5756 5756 5756 5756 5756 5757
5817 5815 5813 5811 5809 5807 5804 5802 5799 5797 5794 5791 5788 5786 5783 5780 5778 5775 5773 5771 5769 5767 5765 5763 5761 5759 5758 5756 5754 5753 5751 5750 5749 5748 5747 5746 5746 5745 5745 5745 5745 5745 5745
5811 5809 5807 5804 5802 5800 5797 5795 5792 5789 5786 5784 5780 5778 5775 5772 5769 5766 5764 5762 5760 5758 5756 5754 5752 5750 5748 5746 5744 5742 5741 5739 5738 5737 5736 5735 5734 5734 5733 5733 5732 5733 5733
5804 5802 5800 5798 5795 5793 5790 5787 5785 5782 5779 5776 5772 5769 5766 5763 5760 5758 5755 5752 5750 5748 5745 5744 5741 5739 5737 5735 5733 5732 5730 5728 5727 5725 5724 5723 5722 5721 5721 5720 5720 5720 5720
5797 5795 5793 5790 5788 5785 5782 5780 5777 5774 5771 5767 5764 5761 5758 5754 5751 5748 5745 5743 5740 5737 5735 5733 5730 5728 5726 5724 5722 5720 5718 5716 5715 5713 5712 5710 5709 5708 5707 5707 5706 5706 5706
5790 5788 5786 5783 5780 5778 5775 5772 5769 5766 5762 5759 5756 5753 5749 5745 5742 5738 5735 5732 5729 5727 5724 5721 5719 5716 5714 5712 5710 5707 5705 5704 5702 5700 5698 5697 5695 5694 5693 5693 5692 5692 5692
5783 5780 5778 5775 5772 5770 5767 5763 5760 5757 5754 5750 5747 5744 5741 5738 5733 5729 5725 5721 5718 5715 5712 5709 5706 5703 5701 5699 5696 5694 5692 5689 5687 5685 5684 5682 5681 5679 5678 5677 5677 5676 5676
5775 5773 5770 5767 5764 5761 5758 5755 5751 5748 5745 5741 5737 5734 5731 5728 5725 5721 5716 5711 5707 5703 5700 5696 5693 5690 5687 5684 5682 5680 5677 5674 5672 5670 5668 5666 5665 5663 5662 5661 5660 5659 5659
5767 5764 5761 5759 5756 5752 5749 5746 5742 5738 5735 5731 5727 5723 5719 5716 5713 5712 5707 5702 5697 5692 5688 5684 5680 5676 5673 5670 5667 5665 5662 5659 5656 5654 5651 5649 5647 5646 5644 5643 5642 5641 5641
5758 5756 5753 5750 5747 5743 5740 5736 5732 5728 5724 5720 5716 5712 5708 5704 5700 5698 5696 5691 5686 5681 5676 5671 5667 5663 5659 5656 5652 5649 5646 5643 5640 5637 5634 5632 5629 5627 5625 5624 5623 5622 5622
5750 5747 5744 5741 5737 5733 5730 5726 5722 5718 5714 5709 5705 5701 5697 5693 5689 5685 5682 5678 5674 5669 5664 5658 5653 5648 5644 5641 5637 5634 5630 5626 5623 5619 5616 5613 5610 5608 5606 5604 5602 5601 5601
5741 5738 5734 5731 5727 5723 5719 5715 5711 5707 5702 5698 5694 5689 5684 5680 5676 5671 5667 5664 5661 5656 5651 5645 5639 5634 5629 5625 5621 5617 5613 5609 5605 5601 5597 5594 5590 5587 5585 5583 5581 5580 5579
5731 5728 5724 5721 5717 5713 5709 5704 5700 5695 5691 5686 5681 5677 5672 5667 5662 5657 5653 5649 5646 5642 5637 5631 5624 5618 5613 5609 5604 5599 5595 5591 5586 5582 5578 5574 5570 5567 5564 5562 5560 5558 5557
5721 5718 5714 5710 5706 5702 5697 5693 5688 5684 5679 5674 5669 5664 5659 5654 5649 5643 5638 5633 5629 5626 5623 5616 5609 5603 5597 5592 5586 5581 5576 5572 5567 5561 5557 5553 5549 5545 5542 5539 5536 5534 5533
5711 5707 5704 5700 5695 5691 5686 5681 5677 5672 5667 5661 5656 5651 5645 5640 5635 5629 5623 5618 5612 5607 5604 5600 5592 5585 5578 5573 5567 5561 5556 5551 5545 5540 5534 5529 5525 5521 5517 5514 5511 5509 5507
5701 5697 5693 5689 5684 5680 5675 5670 5665 5659 5654 5649 5643 5638 5632 5626 5620 5614 5608 5602 5596 5590 5586 5582 5574 5566 5559 5552 5546 5540 5533 5527 5522 5515 5509 5503 5499 5494 5491 5488 5485 5483 5481
5690 5686 5682 5677 5673 5668 5663 5658 5653 5647 5642 5636 5630 5624 5618 5612 5606 5599 5593 5586 5579 5572 5566 5563 5557 5548 5540 5531 5524 5517 5510 5503 5496 5490 5483 5476 5471 5466 5462 5459 5457 5455 5453
5679 5675 5671 5666 5661 5656 5651 5646 5640 5634 5629 5623 5617 5611 5604 5598 5591 5584 5577 5570 5562 5555 5547 5541 5536 5528 5519 5510 5502 5495 5487 5479 5472 5464 5457 5450 5444 5439 5435 5432 5429 5427 5426
5668 5664 5659 5654 5649 5644 5638 5633 5627 5622 5616 5610 5603 5597 5590 5583 5575 5568 5560 5552 5544 5536 5528 5520 5514 5507 5498 5488 5478 5471 5464 5456 5448 5440 5432 5425 5419 5414 5410 5407 5404 5402 5401
5657 5652 5647 5642 5637 5631 5626 5620 5615 5609 5603 5596 5589 5582 5575 5567 5559 5550 5542 5534 5525 5516 5508 5499 5492 5484 5476 5465 5455 5446 5440 5433 5426 5416 5410 5404 5398 5394 5390 5386 5384 5382 5382
5645 5640 5635 5630 5624 5619 5613 5607 5601 5595 5589 5582 5575 5567 5559 5551 5542 5534 5525 5515 5505 5495 5486 5477 5469 5461 5452 5442 5433 5425 5417 5411 5406 5398 5390 5386 5380 5376 5373 5371 5369 5367 5367
5633 5628 5623 5617 5612 5606 5600 5593 5587 5580 5574 5566 5558 5550 5542 5533 5524 5515 5506 5497 5486 5474 5464 5454 5446 5438 5429 5421 5412 5405 5397 5391 5385 5379 5374 5371 5366 5363 5360 5358 5356 5355 5355
5621 5616 5610 5605 5599 5593 5586 5579 5572 5565 5558 5550 5542 5533 5524 5515 5504 5494 5486 5477 5467 5456 5444 5433 5425 5417 5409 5400 5392 5386 5379 5374 5370 5365 5360 5358 5355 5352 5349 5347 5346 5345 5346
5609 5604 5598 5592 5586 5579 5571 5564 5556 5549 5542 5534 5525 5515 5505 5496 5486 5474 5465 5457 5448 5437 5425 5415 5406 5398 5391 5383 5375 5369 5364 5360 5357 5354 5349 5347 5345 5342 5340 5338 5337 5337 5337
5596 5591 5585 5578 5571 5564 5556 5548 5539 5532 5526 5518 5508 5498 5487 5476 5465 5454 5443 5434 5425 5416 5407 5398 5390 5382 5374 5368 5361 5355 5351 5348 5345 5343 5340 5338 5335 5333 5333 5331 5330 5330 5330